Weather in Soluno-Dmitrievskoe

Russia / Stavropol Krai     44°24′17″N   42°43′49″E
temp.,
°C
wind,
m/s
gust,
m/s
humid.,
%
clouds,
%
prec.,
mm/h
press.,
hPa
HPBL,
m
15 june, tue
tue1500:00+16e369018 0.0 100999
03:00+16ene4990100 0.0 1008199
06:00+17e61289100 0.0 1008302
09:00+21ese587980 0.0 1009742
12:00+24ese4466100 0.0 10091368
15:00+24e3475100 0.6 1009593
18:00+23e357763 0.1 1009230
21:00+19se11860 0.1 101111
16 june, wed
wed1600:00+18sw11882 0.0 101011
03:00+17sw00920 0.0 101011
06:00+19ene12880 0.0 101090
09:00+23e58730 0.0 1009744
12:00+26e796436 0.0 10091514
15:00+26ese79601 0.0 10081575
18:00+25ese59704 0.0 1007433
21:00+22e816640 0.0 1007546
17 june, thu
thu1700:00+19ese715725 0.0 1005412
03:00+17e41082100 0.0 1006260
06:00+18s12843 0.0 1008102
09:00+20w6108815 3.9 1010571
12:00+21nw7982100 0.2 1012789
15:00+22nnw587877 0.6 1014997
18:00+22wnw578144 0.2 1015602
21:00+18wnw612911 0.2 1017447
18 june, fri
fri1800:00+16w512935 0.0 1018351
03:00+15w410932 0.0 1018262
06:00+16wnw4890100 0.0 1019362
09:00+20wnw568398 0.0 1018695
12:00+20nnw4486100 0.0 1019521
15:00+23n237765 0.1 1018808
18:00+25n146927 0.7 1017365
21:00+21se1181100 0.9 101811
19 june, sat
sat1900:00+20ne3980100 0.0 1018227
03:00+16e37870 0.0 1018135
06:00+18ene5128997 0.0 1018488
09:00+22ese8128996 0.1 1018776
12:00+24ese9147455 0.3 10171306
15:00+27e1015580 0.3 10161814
18:00+23e1017640 0.0 1016827
21:00+20e918610 0.0 1017616